Location: *
(40.7190°N, 4.2480°W)
Time: 16:29:43
(UTC+00:00)

ALOS - Pass Details

Date: 18 February 2020
Orbit: 684 x 685 km, 97.8° (Epoch: 07 April)

Event Time Altitude Azimuth Distance (km) Brightness Sun altitude
Rises 05:52:07 0° 7° (N) 3,058 5.7 -15.0°
Reaches altitude 10° 05:54:24 10° 3° (N) 2,138 4.8 -14.6°
Maximum altitude 05:58:56 53° 287° (WNW) 838 2.3 -13.7°
Drops below altitude 10° 06:03:28 10° 211° (SSW) 2,122 4.5 -12.8°
Sets 06:05:44 0° 206° (SSW) 3,033 5.4 -12.4°
